owner,sensor,date,latitude,longitude,vertical_datum,direction_of_sea_water_velocity,sea_water_speed,upward_sea_water_velocity,qcFlag 
TABS,ioos:station:wmo:42043:1,2011-12-01T00:00:00Z,28.9818,-94.9186,2.0,29.13363247,20.45821351,-99999.0,'11111222,11111222,99999999' 
TABS,ioos:station:wmo:42043:1,2011-12-01T00:30:00Z,28.9818,-94.9186,2.0,43.07639452,18.53664479,-99999.0,'11111222,11111222,99999999' 
TABS,ioos:station:wmo:42043:1,2011-12-01T01:00:00Z,28.9818,-94.9186,2.0,43.65693225,17.1944904,-99999.0,'11111222,11111222,99999999' 
TABS,ioos:station:wmo:42043:1,2011-12-01T01:30:00Z,28.9818,-94.9186,2.0,51.30298637,19.1937594,-99999.0,'11111222,11111222,99999999' 
TABS,ioos:station:wmo:42043:1,2011-12-01T02:00:00Z,28.9818,-94.9186,2.0,58.57851678,16.95660638,-99999.0,'11111222,11111222,99999999' 
TABS,ioos:station:wmo:42043:1,2011-12-01T02:30:00Z,28.9818,-94.9186,2.0,64.21933405,14.04829527,-99999.0,'11111222,11111222,99999999' 
TABS,ioos:station:wmo:42043:1,2011-12-01T03:00:00Z,28.9818,-94.9186,2.0,65.03663965,14.24037219,-99999.0,'11111222,11111222,99999999' 
TABS,ioos:station:wmo:42043:1,2011-12-01T03:30:00Z,28.9818,-94.9186,2.0,82.89874488,11.97183361,-99999.0,'11111222,11111222,99999999' 
TABS,ioos:station:wmo:42043:1,2011-12-01T04:00:00Z,28.9818,-94.9186,2.0,77.69753316,12.90637827,-99999.0,'11111222,11111222,99999999' 
TABS,ioos:station:wmo:42043:1,2011-12-01T04:30:00Z,28.9818,-94.9186,2.0,107.0656763,11.38112472,-99999.0,'11111222,11111222,99999999' 
TABS,ioos:station:wmo:42043:1,2011-12-01T05:00:00Z,28.9818,-94.9186,2.0,95.2647314,9.5904588,-99999.0,'11133222,11111222,99999999' 
TABS,ioos:station:wmo:42043:1,2011-12-01T05:30:00Z,28.9818,-94.9186,2.0,99.55708187,9.937932381,-99999.0,'11133222,11111222,99999999' 
TABS,ioos:station:wmo:42043:1,2011-12-01T06:00:00Z,28.9818,-94.9186,2.0,95.23498483,11.50800156,-99999.0,'11111222,11111222,99999999' 
TABS,ioos:station:wmo:42043:1,2011-12-01T06:30:00Z,28.9818,-94.9186,2.0,117.495463,9.638723982,-99999.0,'11133222,11111222,99999999' 
TABS,ioos:station:wmo:42043:1,2011-12-01T07:00:00Z,28.9818,-94.9186,2.0,121.470916,8.5238137,-99999.0,'11133222,11111222,99999999' 
TABS,ioos:station:wmo:42043:1,2011-12-01T07:30:00Z,28.9818,-94.9186,2.0,118.432433,12.07670899,-99999.0,'11111222,11111222,99999999' 
TABS,ioos:station:wmo:42043:1,2011-12-01T08:00:00Z,28.9818,-94.9186,2.0,116.1880495,10.19669064,-99999.0,'11111222,11111222,99999999' 
TABS,ioos:station:wmo:42043:1,2011-12-01T08:30:00Z,28.9818,-94.9186,2.0,107.9610724,9.177243595,-99999.0,'11133222,11111222,99999999' 
TABS,ioos:station:wmo:42043:1,2011-12-01T09:00:00Z,28.9818,-94.9186,2.0,124.7728017,7.925307565,-99999.0,'11133222,11111222,99999999' 
TABS,ioos:station:wmo:42043:1,2011-12-01T09:30:00Z,28.9818,-94.9186,2.0,117.3274336,9.410207224,-99999.0,'11133222,11111222,99999999' 
TABS,ioos:station:wmo:42043:1,2011-12-01T10:00:00Z,28.9818,-94.9186,2.0,113.7919887,8.874164749,-99999.0,'11133222,11111222,99999999' 
TABS,ioos:station:wmo:42043:1,2011-12-01T10:30:00Z,28.9818,-94.9186,2.0,115.8898191,7.969899623,-99999.0,'11133222,11111222,99999999' 
TABS,ioos:station:wmo:42043:1,2011-12-01T11:00:00Z,28.9818,-94.9186,2.0,123.1712086,7.657950117,-99999.0,'11133222,11111222,99999999' 
TABS,ioos:station:wmo:42043:1,2011-12-01T11:30:00Z,28.9818,-94.9186,2.0,139.8621099,7.508208841,-99999.0,'11133222,11111222,99999999' 
TABS,ioos:station:wmo:42043:1,2011-12-01T12:00:00Z,28.9818,-94.9186,2.0,142.3522569,7.072651554,-99999.0,'11133222,11111222,99999999' 
TABS,ioos:station:wmo:42043:1,2011-12-01T12:30:00Z,28.9818,-94.9186,2.0,126.8822481,9.214000217,-99999.0,'11133222,11111222,99999999' 
TABS,ioos:station:wmo:42043:1,2011-12-01T13:00:00Z,28.9818,-94.9186,2.0,136.0869682,7.454247112,-99999.0,'11133222,11111222,99999999' 
TABS,ioos:station:wmo:42043:1,2011-12-01T13:30:00Z,28.9818,-94.9186,2.0,182.1415554,6.15429931,-99999.0,'11133222,11111222,99999999' 
TABS,ioos:station:wmo:42043:1,2011-12-01T14:00:00Z,28.9818,-94.9186,2.0,162.6220649,7.198569302,-99999.0,'11133222,11111222,99999999' 
TABS,ioos:station:wmo:42043:1,2011-12-01T14:30:00Z,28.9818,-94.9186,2.0,171.7966871,6.658122859,-99999.0,'11133222,11111222,99999999' 
TABS,ioos:station:wmo:42043:1,2011-12-01T15:00:00Z,28.9818,-94.9186,2.0,199.027899,7.330552503,-99999.0,'11133222,11111222,99999999' 
TABS,ioos:station:wmo:42043:1,2011-12-01T15:30:00Z,28.9818,-94.9186,2.0,221.9076678,5.374765111,-99999.0,'11133222,11111222,99999999' 
TABS,ioos:station:wmo:42043:1,2011-12-01T16:00:00Z,28.9818,-94.9186,2.0,191.9384553,5.897567295,-99999.0,'11133222,11111222,99999999' 
TABS,ioos:station:wmo:42043:1,2011-12-01T16:30:00Z,28.9818,-94.9186,2.0,225.3144924,10.29563014,-99999.0,'11111222,11111222,99999999' 
TABS,ioos:station:wmo:42043:1,2011-12-01T17:00:00Z,28.9818,-94.9186,2.0,224.4034408,7.474523396,-99999.0,'11133222,11111222,99999999' 
TABS,ioos:station:wmo:42043:1,2011-12-01T17:30:00Z,28.9818,-94.9186,2.0,250.8303954,9.623601197,-99999.0,'11133222,11111222,99999999' 
TABS,ioos:station:wmo:42043:1,2011-12-01T18:00:00Z,28.9818,-94.9186,2.0,222.0664397,8.567216584,-99999.0,'11133222,11111222,99999999' 
TABS,ioos:station:wmo:42043:1,2011-12-01T18:30:00Z,28.9818,-94.9186,2.0,243.5582717,8.286887232,-99999.0,'11133222,11111222,99999999' 
TABS,ioos:station:wmo:42043:1,2011-12-01T19:00:00Z,28.9818,-94.9186,2.0,242.1558817,10.02007984,-99999.0,'11111222,11111222,99999999' 
TABS,ioos:station:wmo:42043:1,2011-12-01T19:30:00Z,28.9818,-94.9186,2.0,269.5484416,6.350196847,-99999.0,'11133222,11111222,99999999' 
TABS,ioos:station:wmo:42043:1,2011-12-01T20:00:00Z,28.9818,-94.9186,2.0,266.3334736,8.757922128,-99999.0,'11133222,11111222,99999999' 
TABS,ioos:station:wmo:42043:1,2011-12-01T20:30:00Z,28.9818,-94.9186,2.0,306.5684806,6.076084265,-99999.0,'11133222,11111222,99999999' 
TABS,ioos:station:wmo:42043:1,2011-12-01T21:00:00Z,28.9818,-94.9186,2.0,289.0165225,11.84650159,-99999.0,'11111222,11111222,99999999' 
TABS,ioos:station:wmo:42043:1,2011-12-01T21:30:00Z,28.9818,-94.9186,2.0,282.8168157,6.266115224,-99999.0,'11133222,11111222,99999999' 
TABS,ioos:station:wmo:42043:1,2011-12-01T22:00:00Z,28.9818,-94.9186,2.0,303.8016092,5.716196288,-99999.0,'11133222,11111222,99999999' 
TABS,ioos:station:wmo:42043:1,2011-12-01T22:30:00Z,28.9818,-94.9186,2.0,298.3809218,4.375945612,-99999.0,'11133222,11111222,99999999' 
TABS,ioos:station:wmo:42043:1,2011-12-01T23:00:00Z,28.9818,-94.9186,2.0,312.4819913,6.115308659,-99999.0,'11133222,11111222,99999999' 
TABS,ioos:station:wmo:42043:1,2011-12-01T23:30:00Z,28.9818,-94.9186,2.0,314.7725012,7.11355045,-99999.0,'11133222,11111222,99999999' 
TABS,ioos:station:wmo:42043:1,2011-12-02T00:00:00Z,28.9818,-94.9186,2.0,313.8261357,6.556256554,-99999.0,'11133222,11111222,99999999' 
TABS,ioos:station:wmo:42043:1,2011-12-02T00:30:00Z,28.9818,-94.9186,2.0,285.7883311,4.998569795,-99999.0,'11133222,11111222,99999999' 
TABS,ioos:station:wmo:42043:1,2011-12-02T01:00:00Z,28.9818,-94.9186,2.0,251.388108,8.209311786,-99999.0,'11133222,11111222,99999999' 
TABS,ioos:station:wmo:42043:1,2011-12-02T01:30:00Z,28.9818,-94.9186,2.0,302.9156807,8.410023781,-99999.0,'11133222,11111222,99999999' 
TABS,ioos:station:wmo:42043:1,2011-12-02T02:00:00Z,28.9818,-94.9186,2.0,277.2422708,9.122773701,-99999.0,'11133222,11111222,99999999' 
TABS,ioos:station:wmo:42043:1,2011-12-02T02:30:00Z,28.9818,-94.9186,2.0,258.7327201,10.44122598,-99999.0,'11111222,11111222,99999999' 
TABS,ioos:station:wmo:42043:1,2011-12-02T03:00:00Z,28.9818,-94.9186,2.0,255.104685,8.091897182,-99999.0,'11133222,11111222,99999999' 
TABS,ioos:station:wmo:42043:1,2011-12-02T03:30:00Z,28.9818,-94.9186,2.0,259.8096798,8.026605758,-99999.0,'11133222,11111222,99999999' 
TABS,ioos:station:wmo:42043:1,2011-12-02T04:00:00Z,28.9818,-94.9186,2.0,258.4018453,12.88303148,-99999.0,'11111222,11111222,99999999' 
TABS,ioos:station:wmo:42043:1,2011-12-02T04:30:00Z,28.9818,-94.9186,2.0,251.6596909,13.34799236,-99999.0,'11111222,11111222,99999999' 
TABS,ioos:station:wmo:42043:1,2011-12-02T05:00:00Z,28.9818,-94.9186,2.0,247.4754724,17.96002506,-99999.0,'11111222,11111222,99999999' 
TABS,ioos:station:wmo:42043:1,2011-12-02T05:30:00Z,28.9818,-94.9186,2.0,246.0035884,13.86861565,-99999.0,'11111222,11111222,99999999' 
TABS,ioos:station:wmo:42043:1,2011-12-02T06:00:00Z,28.9818,-94.9186,2.0,233.7599418,15.2749239,-99999.0,'11111222,11111222,99999999' 
TABS,ioos:station:wmo:42043:1,2011-12-02T06:30:00Z,28.9818,-94.9186,2.0,246.9517015,19.97440362,-99999.0,'11111222,11111222,99999999' 
TABS,ioos:station:wmo:42043:1,2011-12-02T07:00:00Z,28.9818,-94.9186,2.0,244.9603,16.9643538,-99999.0,'11111222,11111222,99999999' 
TABS,ioos:station:wmo:42043:1,2011-12-02T07:30:00Z,28.9818,-94.9186,2.0,242.5626428,17.92639674,-99999.0,'11111222,11111222,99999999' 
TABS,ioos:station:wmo:42043:1,2011-12-02T08:00:00Z,28.9818,-94.9186,2.0,243.0426483,21.57408863,-99999.0,'11111222,11111222,99999999' 
TABS,ioos:station:wmo:42043:1,2011-12-02T08:30:00Z,28.9818,-94.9186,2.0,237.8872183,21.55827451,-99999.0,'11111222,11111222,99999999' 
TABS,ioos:station:wmo:42043:1,2011-12-02T09:00:00Z,28.9818,-94.9186,2.0,242.0813174,24.04891058,-99999.0,'11111222,11111222,99999999' 
TABS,ioos:station:wmo:42043:1,2011-12-02T09:30:00Z,28.9818,-94.9186,2.0,248.9809325,26.23562845,-99999.0,'11111222,11111222,99999999' 
TABS,ioos:station:wmo:42043:1,2011-12-02T10:00:00Z,28.9818,-94.9186,2.0,244.8359514,26.88110489,-99999.0,'11111222,11111222,99999999' 
TABS,ioos:station:wmo:42043:1,2011-12-02T10:30:00Z,28.9818,-94.9186,2.0,256.8499406,28.52803008,-99999.0,'11111222,11111222,99999999' 
TABS,ioos:station:wmo:42043:1,2011-12-02T11:00:00Z,28.9818,-94.9186,2.0,257.4031384,30.3095447,-99999.0,'11111222,11111222,99999999' 
TABS,ioos:station:wmo:42043:1,2011-12-02T11:30:00Z,28.9818,-94.9186,2.0,258.247036,31.22458166,-99999.0,'11111222,11111222,99999999' 
TABS,ioos:station:wmo:42043:1,2011-12-02T12:00:00Z,28.9818,-94.9186,2.0,254.5190988,31.65853124,-99999.0,'11111222,11111222,99999999' 
TABS,ioos:station:wmo:42043:1,2011-12-02T12:30:00Z,28.9818,-94.9186,2.0,264.5294732,35.56194736,-99999.0,'11111222,11111222,99999999' 
TABS,ioos:station:wmo:42043:1,2011-12-02T13:00:00Z,28.9818,-94.9186,2.0,260.994821,37.05671329,-99999.0,'11111222,11111222,99999999' 
TABS,ioos:station:wmo:42043:1,2011-12-02T13:30:00Z,28.9818,-94.9186,2.0,268.0348043,40.83400666,-99999.0,'11111222,11111222,99999999' 
TABS,ioos:station:wmo:42043:1,2011-12-02T14:00:00Z,28.9818,-94.9186,2.0,271.4751533,47.01557295,-99999.0,'11111222,11111222,99999999' 
TABS,ioos:station:wmo:42043:1,2011-12-02T14:30:00Z,28.9818,-94.9186,2.0,271.6851013,49.66146595,-99999.0,'11111222,11111222,99999999' 
TABS,ioos:station:wmo:42043:1,2011-12-02T15:00:00Z,28.9818,-94.9186,2.0,271.8256683,47.09389451,-99999.0,'11111222,11111222,99999999' 
TABS,ioos:station:wmo:42043:1,2011-12-02T15:30:00Z,28.9818,-94.9186,2.0,268.5936764,44.83349641,-99999.0,'11111222,11111222,99999999' 
TABS,ioos:station:wmo:42043:1,2011-12-02T16:00:00Z,28.9818,-94.9186,2.0,260.4870637,45.01903597,-99999.0,'11111222,11111222,99999999' 
TABS,ioos:station:wmo:42043:1,2011-12-02T16:30:00Z,28.9818,-94.9186,2.0,257.8539774,47.19644584,-99999.0,'11111222,11111222,99999999' 
TABS,ioos:station:wmo:42043:1,2011-12-02T17:00:00Z,28.9818,-94.9186,2.0,253.9333063,48.81667953,-99999.0,'11111222,11111222,99999999' 
TABS,ioos:station:wmo:42043:1,2011-12-02T17:30:00Z,28.9818,-94.9186,2.0,250.1256841,55.15486742,-99999.0,'11111222,11111222,99999999' 
TABS,ioos:station:wmo:42043:1,2011-12-02T18:00:00Z,28.9818,-94.9186,2.0,255.2908503,45.25298885,-99999.0,'11111222,11111222,99999999' 
TABS,ioos:station:wmo:42043:1,2011-12-02T18:30:00Z,28.9818,-94.9186,2.0,253.5878095,55.17819316,-99999.0,'11111222,11111222,99999999' 
TABS,ioos:station:wmo:42043:1,2011-12-02T19:00:00Z,28.9818,-94.9186,2.0,252.0666153,47.28735243,-99999.0,'11111222,11111222,99999999' 
TABS,ioos:station:wmo:42043:1,2011-12-02T19:30:00Z,28.9818,-94.9186,2.0,252.2829741,44.39554257,-99999.0,'11111222,11111222,99999999' 
TABS,ioos:station:wmo:42043:1,2011-12-02T20:00:00Z,28.9818,-94.9186,2.0,248.0053741,42.48176315,-99999.0,'11111222,11111222,99999999' 
TABS,ioos:station:wmo:42043:1,2011-12-02T20:30:00Z,28.9818,-94.9186,2.0,244.4119077,37.23147593,-99999.0,'11111222,11111222,99999999' 
TABS,ioos:station:wmo:42043:1,2011-12-02T21:00:00Z,28.9818,-94.9186,2.0,244.8428761,37.12099675,-99999.0,'11111222,11111222,99999999' 
TABS,ioos:station:wmo:42043:1,2011-12-02T21:30:00Z,28.9818,-94.9186,2.0,247.0698159,35.5489817,-99999.0,'11111222,11111222,99999999' 
TABS,ioos:station:wmo:42043:1,2011-12-02T22:00:00Z,28.9818,-94.9186,2.0,264.0243184,41.78703268,-99999.0,'11111222,11111222,99999999' 
TABS,ioos:station:wmo:42043:1,2011-12-02T22:30:00Z,28.9818,-94.9186,2.0,268.7857581,43.42974557,-99999.0,'11111222,11111222,99999999' 
TABS,ioos:station:wmo:42043:1,2011-12-02T23:00:00Z,28.9818,-94.9186,2.0,264.8335822,41.98052525,-99999.0,'11111222,11111222,99999999' 
TABS,ioos:station:wmo:42043:1,2011-12-02T23:30:00Z,28.9818,-94.9186,2.0,256.9206376,37.16407001,-99999.0,'11111222,11111222,99999999' 
TABS,ioos:station:wmo:42043:1,2011-12-03T00:00:00Z,28.9818,-94.9186,2.0,252.0308721,37.69875993,-99999.0,'11111222,11111222,99999999' 
TABS,ioos:station:wmo:42043:1,2011-12-03T00:30:00Z,28.9818,-94.9186,2.0,251.3674915,38.59266511,-99999.0,'11111222,11111222,99999999' 
TABS,ioos:station:wmo:42043:1,2011-12-03T01:00:00Z,28.9818,-94.9186,2.0,252.5560418,38.93030311,-99999.0,'11111222,11111222,99999999' 
TABS,ioos:station:wmo:42043:1,2011-12-03T01:30:00Z,28.9818,-94.9186,2.0,253.130046,38.66378667,-99999.0,'11111222,11111222,99999999' 
TABS,ioos:station:wmo:42043:1,2011-12-03T02:00:00Z,28.9818,-94.9186,2.0,251.4533117,39.0478783,-99999.0,'11111222,11111222,99999999' 
TABS,ioos:station:wmo:42043:1,2011-12-03T02:30:00Z,28.9818,-94.9186,2.0,248.3317549,34.26088294,-99999.0,'11111222,11111222,99999999' 
TABS,ioos:station:wmo:42043:1,2011-12-03T03:00:00Z,28.9818,-94.9186,2.0,249.7911586,32.79904419,-99999.0,'11111222,11111222,99999999' 
TABS,ioos:station:wmo:42043:1,2011-12-03T03:30:00Z,28.9818,-94.9186,2.0,245.7423921,34.53948755,-99999.0,'11111222,11111222,99999999' 
TABS,ioos:station:wmo:42043:1,2011-12-03T04:00:00Z,28.9818,-94.9186,2.0,246.4434188,34.07993545,-99999.0,'11111222,11111222,99999999' 
TABS,ioos:station:wmo:42043:1,2011-12-03T04:30:00Z,28.9818,-94.9186,2.0,246.8610697,35.09297651,-99999.0,'11111222,11111222,99999999' 
TABS,ioos:station:wmo:42043:1,2011-12-03T05:00:00Z,28.9818,-94.9186,2.0,244.3920883,32.11442044,-99999.0,'11111222,11111222,99999999' 
TABS,ioos:station:wmo:42043:1,2011-12-03T05:30:00Z,28.9818,-94.9186,2.0,238.8229213,35.98751172,-99999.0,'11111222,11111222,99999999' 
TABS,ioos:station:wmo:42043:1,2011-12-03T06:00:00Z,28.9818,-94.9186,2.0,248.2155231,30.74557854,-99999.0,'11111222,11111222,99999999' 
TABS,ioos:station:wmo:42043:1,2011-12-03T06:30:00Z,28.9818,-94.9186,2.0,243.6301632,34.06445802,-99999.0,'11111222,11111222,99999999' 
TABS,ioos:station:wmo:42043:1,2011-12-03T07:00:00Z,28.9818,-94.9186,2.0,246.0768511,42.49021652,-99999.0,'11111222,11111222,99999999' 
TABS,ioos:station:wmo:42043:1,2011-12-03T07:30:00Z,28.9818,-94.9186,2.0,244.0440952,37.83641103,-99999.0,'11111222,11111222,99999999' 
TABS,ioos:station:wmo:42043:1,2011-12-03T08:00:00Z,28.9818,-94.9186,2.0,239.9268661,37.2780096,-99999.0,'11111222,11111222,99999999' 
TABS,ioos:station:wmo:42043:1,2011-12-03T08:30:00Z,28.9818,-94.9186,2.0,238.259804,35.45200982,-99999.0,'11111222,11111222,99999999' 
TABS,ioos:station:wmo:42043:1,2011-12-03T09:00:00Z,28.9818,-94.9186,2.0,236.7769463,27.54178099,-99999.0,'11111222,11111222,99999999' 
TABS,ioos:station:wmo:42043:1,2011-12-03T09:30:00Z,28.9818,-94.9186,2.0,248.4410271,30.23518646,-99999.0,'11111222,11111222,99999999' 
TABS,ioos:station:wmo:42043:1,2011-12-03T10:00:00Z,28.9818,-94.9186,2.0,240.4123103,29.77216989,-99999.0,'11111222,11111222,99999999' 
TABS,ioos:station:wmo:42043:1,2011-12-03T10:30:00Z,28.9818,-94.9186,2.0,242.9814041,30.53222724,-99999.0,'11111222,11111222,99999999' 
TABS,ioos:station:wmo:42043:1,2011-12-03T11:00:00Z,28.9818,-94.9186,2.0,242.1252595,26.03015559,-99999.0,'11111222,11111222,99999999' 
TABS,ioos:station:wmo:42043:1,2011-12-03T11:30:00Z,28.9818,-94.9186,2.0,238.8247562,25.59633763,-99999.0,'11111222,11111222,99999999' 
TABS,ioos:station:wmo:42043:1,2011-12-03T12:00:00Z,28.9818,-94.9186,2.0,240.6474212,28.23468966,-99999.0,'11111222,11111222,99999999' 
TABS,ioos:station:wmo:42043:1,2011-12-03T12:30:00Z,28.9818,-94.9186,2.0,244.2831075,23.25318473,-99999.0,'11111222,11111222,99999999' 
TABS,ioos:station:wmo:42043:1,2011-12-03T13:00:00Z,28.9818,-94.9186,2.0,241.5817905,15.90675957,-99999.0,'11111222,11111222,99999999' 
TABS,ioos:station:wmo:42043:1,2011-12-03T13:30:00Z,28.9818,-94.9186,2.0,243.0850975,11.73063084,-99999.0,'11111222,11111222,99999999' 
TABS,ioos:station:wmo:42043:1,2011-12-03T14:00:00Z,28.9818,-94.9186,2.0,258.9210136,16.02870238,-99999.0,'11111222,11111222,99999999' 
TABS,ioos:station:wmo:42043:1,2011-12-03T14:30:00Z,28.9818,-94.9186,2.0,256.8230872,17.94238,-99999.0,'11111222,11111222,99999999' 
TABS,ioos:station:wmo:42043:1,2011-12-03T15:00:00Z,28.9818,-94.9186,2.0,260.5146191,16.62731488,-99999.0,'11111222,11111222,99999999' 
TABS,ioos:station:wmo:42043:1,2011-12-03T15:30:00Z,28.9818,-94.9186,2.0,234.6240356,16.02945102,-99999.0,'11111222,11111222,99999999' 
TABS,ioos:station:wmo:42043:1,2011-12-03T16:00:00Z,28.9818,-94.9186,2.0,238.9761394,19.73263794,-99999.0,'11111222,11111222,99999999' 
TABS,ioos:station:wmo:42043:1,2011-12-03T16:30:00Z,28.9818,-94.9186,2.0,219.2431912,19.3165732,-99999.0,'11111222,11111222,99999999' 
TABS,ioos:station:wmo:42043:1,2011-12-03T17:00:00Z,28.9818,-94.9186,2.0,221.8083726,19.56062371,-99999.0,'11111222,11111222,99999999' 
TABS,ioos:station:wmo:42043:1,2011-12-03T17:30:00Z,28.9818,-94.9186,2.0,230.9778816,19.28159744,-99999.0,'11111222,11111222,99999999' 
TABS,ioos:station:wmo:42043:1,2011-12-03T18:00:00Z,28.9818,-94.9186,2.0,227.1306322,18.25597984,-99999.0,'11111222,11111222,99999999' 
TABS,ioos:station:wmo:42043:1,2011-12-03T18:30:00Z,28.9818,-94.9186,2.0,236.1612844,19.28699043,-99999.0,'11111222,11111222,99999999' 
TABS,ioos:station:wmo:42043:1,2011-12-03T19:00:00Z,28.9818,-94.9186,2.0,246.7247026,33.50680528,-99999.0,'11111222,11111222,99999999' 
TABS,ioos:station:wmo:42043:1,2011-12-03T19:30:00Z,28.9818,-94.9186,2.0,240.9243461,32.26611845,-99999.0,'11111222,11111222,99999999' 
TABS,ioos:station:wmo:42043:1,2011-12-03T20:00:00Z,28.9818,-94.9186,2.0,238.5654979,35.51169385,-99999.0,'11111222,11111222,99999999' 
TABS,ioos:station:wmo:42043:1,2011-12-03T20:30:00Z,28.9818,-94.9186,2.0,228.6508035,31.42396697,-99999.0,'11111222,11111222,99999999' 
TABS,ioos:station:wmo:42043:1,2011-12-03T21:00:00Z,28.9818,-94.9186,2.0,238.094636,32.67660478,-99999.0,'11111222,11111222,99999999' 
TABS,ioos:station:wmo:42043:1,2011-12-03T21:30:00Z,28.9818,-94.9186,2.0,235.6129438,31.25134557,-99999.0,'11111222,11111222,99999999' 
TABS,ioos:station:wmo:42043:1,2011-12-03T22:00:00Z,28.9818,-94.9186,2.0,233.0368119,29.58603894,-99999.0,'11111222,11111222,99999999' 
TABS,ioos:station:wmo:42043:1,2011-12-03T22:30:00Z,28.9818,-94.9186,2.0,234.0883465,30.12621616,-99999.0,'11111222,11111222,99999999' 
TABS,ioos:station:wmo:42043:1,2011-12-03T23:00:00Z,28.9818,-94.9186,2.0,244.0170965,30.7922474,-99999.0,'11111222,11111222,99999999' 
TABS,ioos:station:wmo:42043:1,2011-12-03T23:30:00Z,28.9818,-94.9186,2.0,238.454716,37.19652672,-99999.0,'11111222,11111222,99999999' 
TABS,ioos:station:wmo:42043:1,2011-12-04T00:00:00Z,28.9818,-94.9186,2.0,240.4080691,34.30440934,-99999.0,'11111222,11111222,99999999' 
TABS,ioos:station:wmo:42043:1,2011-12-04T00:30:00Z,28.9818,-94.9186,2.0,243.7679368,31.51567546,-99999.0,'11111222,11111222,99999999' 
TABS,ioos:station:wmo:42043:1,2011-12-04T01:00:00Z,28.9818,-94.9186,2.0,242.3878153,32.55811112,-99999.0,'11111222,11111222,99999999' 
TABS,ioos:station:wmo:42043:1,2011-12-04T01:30:00Z,28.9818,-94.9186,2.0,247.1694235,32.26790976,-99999.0,'11111222,11111222,99999999' 
TABS,ioos:station:wmo:42043:1,2011-12-04T02:00:00Z,28.9818,-94.9186,2.0,249.2612363,32.73072257,-99999.0,'11111222,11111222,99999999' 
TABS,ioos:station:wmo:42043:1,2011-12-04T02:30:00Z,28.9818,-94.9186,2.0,242.2241843,31.54454152,-99999.0,'11111222,11111222,99999999' 
TABS,ioos:station:wmo:42043:1,2011-12-04T03:00:00Z,28.9818,-94.9186,2.0,248.2803154,32.40015586,-99999.0,'11111222,11111222,99999999' 
TABS,ioos:station:wmo:42043:1,2011-12-04T03:30:00Z,28.9818,-94.9186,2.0,242.8925898,34.03894975,-99999.0,'11111222,11111222,99999999' 
TABS,ioos:station:wmo:42043:1,2011-12-04T04:00:00Z,28.9818,-94.9186,2.0,244.2993156,39.70814526,-99999.0,'11111222,11111222,99999999' 
TABS,ioos:station:wmo:42043:1,2011-12-04T04:30:00Z,28.9818,-94.9186,2.0,235.6401488,37.03153926,-99999.0,'11111222,11111222,99999999' 
TABS,ioos:station:wmo:42043:1,2011-12-04T05:00:00Z,28.9818,-94.9186,2.0,236.5404845,37.85304875,-99999.0,'11111222,11111222,99999999' 
TABS,ioos:station:wmo:42043:1,2011-12-04T05:30:00Z,28.9818,-94.9186,2.0,234.7497657,34.94796847,-99999.0,'11111222,11111222,99999999' 
TABS,ioos:station:wmo:42043:1,2011-12-04T06:00:00Z,28.9818,-94.9186,2.0,228.8044124,34.63263923,-99999.0,'11111222,11111222,99999999' 
TABS,ioos:station:wmo:42043:1,2011-12-04T06:30:00Z,28.9818,-94.9186,2.0,224.7285713,35.86485745,-99999.0,'11111222,11111222,99999999' 
TABS,ioos:station:wmo:42043:1,2011-12-04T07:00:00Z,28.9818,-94.9186,2.0,230.1674023,35.71973264,-99999.0,'11111222,11111222,99999999' 
TABS,ioos:station:wmo:42043:1,2011-12-04T07:30:00Z,28.9818,-94.9186,2.0,236.8973274,37.04205448,-99999.0,'11111222,11111222,99999999' 
TABS,ioos:station:wmo:42043:1,2011-12-04T08:00:00Z,28.9818,-94.9186,2.0,237.1255464,38.17279136,-99999.0,'11111222,11111222,99999999' 
TABS,ioos:station:wmo:42043:1,2011-12-04T08:30:00Z,28.9818,-94.9186,2.0,240.9030213,33.10823009,-99999.0,'11111222,11111222,99999999' 
TABS,ioos:station:wmo:42043:1,2011-12-04T09:00:00Z,28.9818,-94.9186,2.0,242.821562,36.36501891,-99999.0,'11111222,11111222,99999999' 
TABS,ioos:station:wmo:42043:1,2011-12-04T09:30:00Z,28.9818,-94.9186,2.0,243.4058235,35.62951164,-99999.0,'11111222,11111222,99999999' 
TABS,ioos:station:wmo:42043:1,2011-12-04T10:00:00Z,28.9818,-94.9186,2.0,260.7698807,42.52050447,-99999.0,'11111222,11111222,99999999' 
TABS,ioos:station:wmo:42043:1,2011-12-04T10:30:00Z,28.9818,-94.9186,2.0,254.64897,42.61016897,-99999.0,'11111222,11111222,99999999' 
TABS,ioos:station:wmo:42043:1,2011-12-04T11:00:00Z,28.9818,-94.9186,2.0,248.4435616,39.029804,-99999.0,'11111222,11111222,99999999' 
TABS,ioos:station:wmo:42043:1,2011-12-04T11:30:00Z,28.9818,-94.9186,2.0,250.8651333,39.11080286,-99999.0,'11111222,11111222,99999999' 
TABS,ioos:station:wmo:42043:1,2011-12-04T12:00:00Z,28.9818,-94.9186,2.0,243.4701774,36.00070138,-99999.0,'11111222,11111222,99999999' 
TABS,ioos:station:wmo:42043:1,2011-12-04T12:30:00Z,28.9818,-94.9186,2.0,244.1426678,33.29312241,-99999.0,'11111222,11111222,99999999' 
TABS,ioos:station:wmo:42043:1,2011-12-04T13:00:00Z,28.9818,-94.9186,2.0,247.1682582,24.38016612,-99999.0,'11111222,11111222,99999999' 
TABS,ioos:station:wmo:42043:1,2011-12-04T13:30:00Z,28.9818,-94.9186,2.0,257.8848974,22.06131909,-99999.0,'11111222,11111222,99999999' 
TABS,ioos:station:wmo:42043:1,2011-12-04T14:00:00Z,28.9818,-94.9186,2.0,254.8857211,19.21464546,-99999.0,'11111222,11111222,99999999' 
TABS,ioos:station:wmo:42043:1,2011-12-04T14:30:00Z,28.9818,-94.9186,2.0,266.5012825,17.86328637,-99999.0,'11111222,11111222,99999999' 
TABS,ioos:station:wmo:42043:1,2011-12-04T15:00:00Z,28.9818,-94.9186,2.0,259.8852062,13.7232722,-99999.0,'11111222,11111222,99999999' 
TABS,ioos:station:wmo:42043:1,2011-12-04T15:30:00Z,28.9818,-94.9186,2.0,210.0004472,24.99944999,-99999.0,'11111222,11111222,99999999' 
TABS,ioos:station:wmo:42043:1,2011-12-04T16:00:00Z,28.9818,-94.9186,2.0,266.8262725,4.877478857,-99999.0,'11133222,11111222,99999999' 